Perth, Australia

6:02 PM AWST on July 22, 2017 (GMT +0800)
Perth International

Weather History for YPPH - December, 2012

Change the Weather History Date:

Monday, December 31, 2012

  Actual Average Record
Temperature  
Mean Temperature 88 °F -  
Max Temperature 108 °F 89 °F 108 °F (2012)
Min Temperature 69 °F 63 °F 51 °F (2003)
Cooling Degree Days 24    
Growing Degree Days 38 (Base 50)    
Moisture  
Dew Point 53 °F    
Average Humidity 32    
Maximum Humidity 73    
Minimum Humidity 7    
Precipitation  
Precipitation 0.00 in 0.01 in - ()
Sea Level Pressure  
Sea Level Pressure 29.80 in    
Wind  
Wind Speed 6 mph ()    
Max Wind Speed 14 mph    
Max Gust Speed -    
Visibility 19.0 miles    
Events      
Averages and records for this station are not official NWS values.
T = Trace of Precipitation, MM = Missing Value Source: Averaged Metar Reports

Daily Weather History Graph

Daily Weather History Graph

Search for Another Location

Airport or City:

Trip Planner

Search our weather history database for the weather conditions in past years. The results will help you decide how hot, cold, wet, or windy it might be!

Date:

Astronomy

Dec. 31, 2012 Rise Set
Actual Time 5:13 AM AWST 7:25 PM AWST
Civil Twilight 4:44 AM AWST 7:53 PM AWST
Nautical Twilight 4:10 AM AWST 8:27 PM AWST
Astronomical Twilight 3:33 AM AWST 9:04 PM AWST
Moon 9:08 PM AWST (12/31) 7:38 AM AWST (12/31)
Length of Visible Light 15h 08m
Length of Day
14h 12m
Waning Gibbous, 93% of the Moon is Illuminated
Dec 31
Waning Gibbous
Jan 5
Last Quarter
Jan 12
New
Jan 19
First Quarter
Jan 27
Full

Hourly Weather History & Observations

Time (AWST) Temp. Heat Index Dew Point Humidity Pressure Visibility Wind Dir Wind Speed Gust Speed Precip Events Conditions
12:00 AM 77 °F - 61 °F 48% 29.91 in 19 mi Calm Calm - -   Partly Cloudy
12:00 AM 77.0 °F - 60.8 °F 57% 29.92 in - Calm Calm - N/A   Clear
12:30 AM 75.2 °F - 60.8 °F 61% 29.89 in - East 2.3 mph - N/A   Clear
1:00 AM 71.6 °F - 60.8 °F 69% 29.89 in - Calm Calm - N/A   Clear
1:30 AM 71.6 °F - 60.8 °F 69% 29.89 in - Calm Calm - N/A   Clear
2:00 AM 70 °F - 60 °F 62% 29.88 in - ENE 4.6 mph - -  
2:00 AM 69.8 °F - 59.0 °F 68% 29.86 in - ENE 4.6 mph - N/A   Clear
2:30 AM 69.8 °F - 60.8 °F 73% 29.86 in - Calm Calm - N/A   Clear
3:00 AM 70 °F - 59 °F 61% 29.87 in 19 mi ENE 4.6 mph - -   Partly Cloudy
3:00 AM 69.8 °F - 59.0 °F 68% 29.86 in - NE 4.6 mph - N/A   Clear
3:30 AM 75.2 °F - 59.0 °F 57% 29.86 in - ENE 9.2 mph - N/A   Clear
4:00 AM 75.2 °F - 59.0 °F 57% 29.86 in - NNE 5.8 mph - N/A   Clear
4:30 AM 75.2 °F - 59.0 °F 57% 29.86 in - NE 5.8 mph - N/A   Clear
5:00 AM 74 °F - 58 °F 49% 29.87 in - NNE 5.8 mph - -  
5:00 AM 75.2 °F - 59.0 °F 57% 29.86 in - NNE 5.8 mph - N/A   Clear
5:30 AM 75.2 °F - 59.0 °F 57% 29.86 in - ENE 6.9 mph - N/A   Clear
6:00 AM 77 °F - 58 °F 41% 29.87 in 19 mi North 4.6 mph - -   Partly Cloudy
6:00 AM 77.0 °F - 57.2 °F 50% 29.86 in - North 4.6 mph - N/A   Clear
6:30 AM 82.4 °F 82.5 °F 59.0 °F 45% 29.86 in - NNE 1.2 mph - N/A   Clear
7:00 AM 84.2 °F 83.8 °F 59.0 °F 42% 29.86 in - ENE 8.1 mph - N/A   Clear
7:30 AM 84.2 °F 83.8 °F 59.0 °F 42% 29.89 in - NNE 10.4 mph - N/A   Clear
8:00 AM 87 °F - 59 °F 28% 29.88 in - ENE 13.8 mph - -  
8:00 AM 87.8 °F 87.1 °F 59.0 °F 38% 29.86 in - ENE 13.8 mph - N/A   Clear
8:30 AM 89.6 °F 88.9 °F 59.0 °F 36% 29.86 in - NE 10.4 mph - N/A   Clear
9:00 AM 92 °F - 58 °F 22% 29.87 in 19 mi NNE 8.1 mph - -   Partly Cloudy
9:00 AM 93.2 °F 92.6 °F 59.0 °F 32% 29.86 in - NNE 8.1 mph - N/A   Clear
9:30 AM 95.0 °F 93.0 °F 55.4 °F 26% 29.86 in - ENE 10.4 mph - N/A   Clear
10:00 AM 98.6 °F - 51.8 °F 21% 29.83 in - NE 10.4 mph - N/A   Clear
10:30 AM 100.4 °F - 48.2 °F 17% 29.83 in - NE 9.2 mph - N/A   Clear
11:00 AM 101 °F - 47 °F 9% 29.83 in - North 9.2 mph - -  
11:00 AM 100.4 °F - 46.4 °F 16% 29.83 in - North 9.2 mph - N/A   Clear
11:30 AM 104.0 °F - 42.8 °F 12% 29.80 in - North 13.8 mph - N/A   Clear
12:00 PM 103 °F - 43 °F 7% 29.81 in 19 mi North 10.4 mph - -   Partly Cloudy
12:00 PM 104.0 °F - 42.8 °F 12% 29.80 in - North 10.4 mph - N/A   Clear
12:30 PM 105.8 °F - 42.8 °F 12% 29.77 in - NNE 12.7 mph - N/A   Clear
1:00 PM 104.0 °F - 42.8 °F 12% 29.77 in - NNE 13.8 mph - N/A   Clear
1:30 PM 104.0 °F - 42.8 °F 12% 29.74 in - NNW 10.4 mph - N/A   Clear
2:00 PM 106 °F - 47 °F 7% 29.75 in - North 10.4 mph - -  
2:00 PM 105.8 °F - 46.4 °F 14% 29.74 in - North 10.4 mph - N/A   Clear
2:30 PM 104.0 °F - 46.4 °F 14% 29.74 in - West 11.5 mph - N/A   Clear
3:00 PM 106 °F - 50 °F 9% 29.73 in 19 mi SW 9.2 mph - -   Partly Cloudy
3:00 PM 105.8 °F - 50.0 °F 15% 29.71 in - SW 9.2 mph - N/A   Clear
3:30 PM 105.8 °F - 48.2 °F 14% 29.71 in - NW 8.1 mph - N/A   Clear
4:00 PM 105.8 °F - 42.8 °F 12% 29.71 in - West 8.1 mph - N/A   Clear
4:30 PM 105.8 °F - 46.4 °F 14% 29.71 in - SW 12.7 mph - N/A   Clear
5:00 PM 103 °F - 46 °F 8% 29.71 in - WSW 12.7 mph - -  
5:00 PM 104.0 °F - 46.4 °F 14% 29.71 in - WSW 12.7 mph - N/A   Clear
5:30 PM 100.4 °F - 46.4 °F 16% 29.71 in - WSW 12.7 mph - N/A   Clear
6:00 PM 100 °F - 46 °F 9% 29.71 in 19 mi SW 11.5 mph - -   Partly Cloudy
6:00 PM 100.4 °F - 46.4 °F 16% 29.71 in - SW 11.5 mph - N/A   Clear
6:30 PM 100.4 °F - 48.2 °F 17% 29.71 in - SSW 10.4 mph - N/A   Clear
7:00 PM 98.6 °F - 50.0 °F 19% 29.71 in - South 9.2 mph - N/A   Clear
7:30 PM 96.8 °F - 48.2 °F 19% 29.71 in - South 9.2 mph - N/A   Clear
8:00 PM 95 °F - 52 °F 15% 29.72 in - South 9.2 mph - -  
8:00 PM 95.0 °F - 51.8 °F 23% 29.71 in - South 9.2 mph - N/A   Clear
8:30 PM 91.4 °F 89.4 °F 55.4 °F 29% 29.71 in - SSE 8.1 mph - N/A   Clear
9:00 PM 88 °F - 55 °F 22% 29.73 in 19 mi East 6.9 mph - -   Partly Cloudy
9:00 PM 87.8 °F 86.1 °F 55.4 °F 33% 29.71 in - East 6.9 mph - N/A   Clear
9:30 PM 84.2 °F 83.0 °F 55.4 °F 37% 29.71 in - East 5.8 mph - N/A   Clear
10:00 PM 84.2 °F 82.8 °F 53.6 °F 35% 29.71 in - NW 11.5 mph - N/A   Clear
10:30 PM 84.2 °F 83.0 °F 55.4 °F 37% 29.74 in - North 6.9 mph - N/A   Clear
11:00 PM 82 °F - 56 °F 30% 29.73 in - East 8.1 mph - -  
11:00 PM 82.4 °F 81.7 °F 55.4 °F 39% 29.71 in - East 8.1 mph - N/A   Clear
11:30 PM 84.2 °F 83.0 °F 55.4 °F 37% 29.71 in - ENE 8.1 mph - N/A   Clear